Temp
10 10 10 9 9 8 8 9 9 9 9 9 9 9 9 9 9 8 9 9 9 9 9 9 9 9 9 9 9 9 9 9 9 9 9 9 8 8 8 8 8 8 8
10 10 10 9 9 9 9 9 9 9 10 10 10 9 9 9 9 9 9 9 9 9 9 9 9 9 9 9 9 9 9 9 9 9 9 9 9 8 8 7 7 7 7
10 9 10 10 9 9 9 9 9 10 10 9 9 9 9 9 9 9 9 9 9 9 9 9 9 9 9 9 9 9 9 9 9 9 8 8 8 8 8 8 7 6 6
10 9 9 9 9 9 9 9 9 10 10 10 9 9 9 9 9 9 9 9 9 9 9 9 9 9 9 9 9 9 9 9 9 9 9 8 8 8 7 8 7 7 7
10 10 9 9 9 9 9 9 9 9 9 9 9 9 9 9 9 9 9 9 9 9 9 9 9 9 9 9 9 9 9 9 8 8 8 8 8 7 7 7 7 7 7
10 10 9 9 9 9 9 9 9 9 9 9 9 9 9 9 9 9 9 9 9 9 9 9 9 9 9 9 9 9 9 8 8 8 8 8 8 8 7 7 6 6 6
10 10 9 9 9 9 9 9 9 9 9 9 9 9 9 9 9 9 9 9 9 10 10 10 9 9 9 9 9 8 8 8 8 8 8 8 8 8 8 7 6 5 5
10 10 9 9 9 9 9 9 9 9 9 9 9 9 10 10 9 9 9 10 10 10 10 10 9 9 9 9 8 8 8 9 8 8 8 8 8 8 7 7 7 6 5
11 9 9 9 9 9 9 9 9 9 9 9 9 9 10 10 9 9 9 10 10 10 10 9 9 9 9 9 9 9 9 9 9 8 8 8 8 8 7 7 7 6 5
11 10 9 9 9 9 9 9 9 9 9 9 9 9 9 9 9 9 9 10 10 9 9 9 9 9 9 9 9 9 9 9 9 9 8 8 8 8 8 7 7 6 6
11 10 10 9 9 9 9 9 9 9 9 9 9 9 9 9 9 9 9 10 9 9 10 9 9 9 9 9 9 9 9 9 9 9 8 8 8 8 8 8 7 7 6
11 10 10 9 9 9 9 9 9 9 9 9 9 9 9 9 9 9 9 9 9 9 9 9 9 9 9 9 9 9 9 9 9 9 9 9 9 8 9 9 8 7 7
10 10 10 9 9 9 8 9 9 8 8 9 9 9 9 9 9 9 9 9 9 9 9 9 9 9 9 9 9 9 9 8 8 8 8 9 9 8 8 9 8 8 8
10 10 9 9 9 8 8 8 8 8 8 8 8 8 9 9 9 9 9 9 9 9 9 9 9 9 8 9 9 8 8 8 8 8 8 8 8 8 8 8 8 8 8
9 9 9 9 8 8 8 8 8 8 8 8 8 8 8 8 9 9 9 9 9 9 9 8 8 8 8 8 8 8 8 8 8 8 8 8 8 8 7 7 7 7 7
9 9 9 8 8 8 8 8 8 8 8 8 8 8 8 8 8 8 8 8 8 8 8 8 8 8 8 8 8 8 8 7 7 7 7 7 7 7 7 7 6 6 6
8 8 8 8 8 8 7 7 7 8 8 8 8 8 8 8 8 8 8 7 8 7 8 8 8 7 7 7 7 7 7 6 6 6 5 6 6 6 5 5 5 5 6
8 7 8 7 7 7 7 7 7 7 7 7 7 7 7 7 7 7 7 7 7 7 7 7 7 7 7 7 6 6 6 5 5 5 5 5 5 5 4 4 4 5 5
7 7 7 7 7 7 7 7 7 7 7 7 7 7 7 7 7 7 6 7 6 6 6 6 6 6 6 6 6 6 6 5 4 4 4 4 4 4 4 4 4 4 4
7 7 7 7 7 7 6 6 6 6 7 7 6 6 6 6 6 6 6 6 6 6 6 6 5 5 5 5 5 5 5 4 4 3 3 3 3 3 3 3 3 3 3
6 7 6 6 6 6 6 6 6 6 6 6 6 6 6 6 6 6 5 5 5 5 5 5 5 5 5 5 4 4 4 4 3 3 3 3 3 3 3 3 3 3 3
6 6 6 6 6 6 5 5 5 5 5 5 6 6 5 5 5 5 5 4 4 4 4 5 4 4 4 4 4 4 4 3 2 2 2 2 2 2 2 2 2 2 2
5 6 5 5 5 5 5 5 5 5 5 5 5 5 5 5 5 4 4 4 4 4 4 4 3 3 3 4 4 3 3 3 2 2 1 1 1 1 1 1 1 1 1
4 5 5 6 5 5 4 4 5 5 5 5 5 4 4 4 4 4 4 3 3 3 3 3 3 3 3 3 3 2 2 1 1 1 1 1 1 1 1 1 1 1 1
5 5 5 5 4 4 4 4 4 4 4 4 4 4 4 4 4 3 3 3 2 2 2 2 2 2 2 2 2 1 1 0 0 0 -0 -0 -0 -0 0 0 0 -0 -0
4 4 3 3 4 4 3 3 4 4 4 4 4 4 3 3 3 3 2 2 2 2 1 1 1 1 1 1 0 -0 -1 -1 -1 -1 -1 -1 -0 -1 -1 -1 -1 -0 -1
Height
3169 3171 3172 3173 3174 3175 3176 3177 3178 3178 3178 3178 3178 3177 3177 3176 3175 3175 3174 3174 3174 3173 3172 3172 3171 3171 3171 3170 3169 3169 3169 3168 3167 3166 3166 3166 3165 3164 3164 3163 3163 3162 3162
3168 3170 3172 3173 3175 3176 3176 3177 3178 3178 3179 3179 3179 3178 3177 3177 3176 3175 3175 3175 3174 3174 3174 3173 3172 3172 3171 3171 3170 3169 3168 3167 3166 3166 3165 3165 3165 3163 3163 3162 3162 3161 3161
3167 3169 3171 3173 3175 3176 3176 3178 3178 3179 3179 3179 3179 3179 3178 3177 3177 3176 3175 3175 3175 3174 3174 3174 3173 3172 3172 3171 3170 3168 3167 3166 3166 3165 3164 3164 3163 3163 3162 3162 3161 3160 3160
3166 3169 3171 3173 3175 3176 3177 3178 3178 3179 3179 3179 3179 3179 3179 3178 3177 3177 3176 3176 3176 3175 3174 3174 3173 3172 3171 3170 3169 3167 3166 3165 3163 3163 3163 3162 3162 3161 3160 3160 3159 3159 3158
3166 3168 3170 3173 3174 3176 3177 3177 3178 3178 3179 3179 3179 3179 3179 3178 3178 3177 3177 3176 3176 3175 3174 3174 3173 3172 3170 3169 3167 3166 3164 3163 3162 3161 3161 3161 3160 3159 3158 3157 3157 3157 3156
3165 3167 3170 3172 3173 3175 3177 3178 3178 3179 3179 3179 3179 3179 3178 3178 3177 3177 3177 3176 3176 3175 3174 3173 3172 3171 3170 3168 3166 3164 3163 3161 3160 3159 3158 3158 3157 3157 3156 3155 3155 3154 3154
3165 3167 3169 3170 3173 3175 3177 3178 3179 3179 3179 3179 3179 3179 3179 3178 3177 3177 3176 3176 3175 3174 3173 3171 3170 3169 3168 3166 3164 3162 3161 3160 3158 3157 3156 3156 3155 3154 3153 3152 3152 3152 3152
3164 3166 3168 3170 3171 3174 3176 3177 3178 3178 3179 3179 3178 3178 3178 3178 3177 3176 3175 3175 3174 3173 3172 3170 3169 3167 3166 3164 3162 3161 3159 3158 3157 3155 3154 3153 3152 3151 3150 3149 3149 3149 3149
3164 3164 3167 3169 3171 3173 3175 3177 3177 3178 3178 3178 3178 3177 3177 3177 3176 3176 3175 3174 3173 3172 3171 3169 3167 3165 3164 3162 3161 3159 3158 3156 3155 3153 3152 3150 3149 3148 3147 3146 3145 3145 3144
3163 3163 3166 3168 3170 3172 3174 3176 3176 3177 3177 3177 3177 3177 3176 3176 3176 3175 3175 3174 3173 3171 3169 3167 3165 3164 3163 3161 3160 3158 3156 3155 3152 3150 3149 3147 3146 3144 3143 3143 3142 3141 3140
3162 3163 3165 3167 3169 3171 3173 3174 3176 3176 3176 3176 3176 3176 3175 3175 3174 3174 3173 3172 3171 3169 3167 3166 3164 3163 3161 3159 3158 3157 3155 3153 3150 3148 3146 3145 3143 3141 3140 3139 3138 3138 3137
3161 3163 3165 3166 3168 3170 3172 3173 3174 3175 3175 3175 3175 3175 3175 3173 3173 3173 3171 3170 3170 3167 3166 3164 3163 3161 3160 3159 3156 3155 3153 3151 3148 3147 3145 3142 3141 3139 3137 3136 3135 3134 3133
3158 3161 3164 3165 3167 3169 3171 3172 3173 3174 3174 3174 3174 3173 3173 3173 3172 3172 3170 3170 3168 3166 3165 3163 3162 3160 3158 3156 3154 3152 3150 3148 3145 3144 3142 3141 3140 3137 3135 3134 3133 3132 3130
3155 3158 3161 3164 3166 3168 3169 3170 3171 3172 3173 3173 3173 3172 3172 3172 3171 3171 3168 3169 3166 3164 3164 3162 3160 3158 3156 3154 3152 3149 3147 3145 3143 3141 3139 3138 3137 3135 3133 3131 3130 3129 3128
3153 3157 3159 3161 3164 3166 3168 3168 3169 3170 3171 3172 3172 3171 3171 3170 3169 3168 3167 3167 3164 3163 3162 3160 3159 3157 3155 3152 3150 3148 3145 3142 3140 3137 3136 3135 3134 3132 3130 3129 3127 3126 3125
3150 3154 3157 3159 3161 3164 3166 3167 3168 3169 3170 3170 3170 3169 3169 3169 3168 3165 3165 3164 3162 3161 3160 3158 3157 3155 3152 3150 3148 3145 3143 3140 3138 3136 3133 3132 3131 3129 3127 3125 3124 3123 3122
3146 3150 3154 3157 3159 3161 3163 3165 3166 3167 3168 3168 3168 3167 3167 3167 3165 3164 3163 3161 3160 3158 3158 3156 3154 3153 3150 3147 3145 3143 3141 3139 3136 3134 3132 3130 3129 3127 3125 3123 3121 3119 3118
3143 3147 3151 3153 3156 3159 3161 3162 3164 3164 3165 3166 3166 3166 3165 3165 3163 3161 3160 3159 3158 3156 3155 3153 3151 3149 3148 3145 3143 3141 3139 3136 3133 3131 3129 3128 3127 3124 3122 3121 3119 3117 3115
3141 3145 3147 3151 3154 3156 3159 3160 3161 3162 3162 3163 3163 3163 3162 3161 3160 3158 3157 3156 3155 3154 3152 3150 3148 3146 3144 3143 3141 3139 3137 3134 3131 3129 3127 3125 3123 3121 3119 3117 3116 3114 3112
3137 3141 3144 3147 3151 3154 3156 3156 3158 3159 3160 3160 3159 3160 3159 3158 3157 3155 3154 3153 3153 3151 3149 3147 3145 3143 3142 3139 3137 3136 3133 3131 3128 3126 3124 3122 3119 3117 3116 3114 3112 3110 3108
3135 3138 3141 3145 3146 3151 3152 3153 3154 3155 3156 3156 3156 3156 3155 3155 3153 3152 3151 3150 3149 3147 3145 3144 3142 3140 3138 3136 3134 3131 3129 3126 3125 3123 3121 3118 3116 3114 3111 3109 3108 3106 3103
3132 3137 3139 3141 3145 3147 3147 3150 3151 3152 3152 3152 3152 3152 3152 3151 3150 3149 3147 3146 3144 3142 3142 3141 3139 3137 3134 3132 3129 3127 3124 3123 3120 3119 3117 3115 3113 3110 3107 3105 3103 3101 3100
3129 3134 3137 3139 3141 3142 3143 3145 3147 3147 3148 3148 3148 3148 3148 3147 3146 3145 3143 3141 3140 3139 3138 3136 3134 3132 3129 3126 3124 3121 3118 3116 3114 3113 3111 3109 3107 3105 3103 3100 3097 3095 3093
3129 3133 3134 3134 3134 3138 3139 3141 3142 3143 3143 3144 3144 3144 3143 3142 3141 3140 3138 3137 3135 3134 3132 3130 3129 3126 3124 3121 3118 3116 3113 3110 3107 3106 3106 3103 3101 3099 3097 3094 3092 3089 3087
3121 3125 3127 3128 3131 3133 3135 3136 3138 3138 3139 3139 3140 3139 3138 3137 3136 3134 3133 3131 3130 3129 3127 3125 3122 3120 3118 3116 3113 3110 3108 3105 3102 3099 3099 3098 3096 3094 3092 3090 3086 3084 3081
3117 3120 3121 3124 3127 3128 3129 3131 3133 3134 3134 3135 3135 3134 3132 3131 3130 3128 3127 3126 3125 3123 3121 3119 3116 3114 3111 3109 3106 3104 3102 3099 3097 3093 3090 3091 3090 3089 3084 3082 3081 3079 3076
Wind_Speed
13 12 11 9 9 7 5 3 1 1 2 4 5 5 6 8 8 9 9 9 8 7 7 8 9 10 9 9 9 10 10 10 10 9 9 9 9 8 8 8 9 8 8
12 13 13 11 9 6 5 3 1 1 3 3 5 6 7 8 9 9 8 8 8 8 8 8 9 9 9 9 10 10 11 11 11 11 11 11 11 10 8 8 8 9 9
15 15 13 11 9 6 5 3 2 2 2 4 6 7 8 9 8 7 7 7 7 7 7 8 8 9 10 11 12 12 13 14 15 14 13 13 13 13 13 12 11 9 10
14 15 13 11 9 6 4 3 3 2 2 3 5 7 8 8 7 6 6 6 6 7 8 9 10 11 12 12 13 14 15 15 16 16 16 16 16 15 15 15 15 13 12
14 16 14 11 8 7 5 5 4 2 1 3 5 7 8 7 6 6 6 6 7 8 9 11 12 13 14 15 15 16 17 17 17 17 16 15 16 15 15 16 16 15 15
14 16 14 11 9 8 6 5 3 2 2 3 5 7 7 7 6 6 6 7 8 10 11 12 13 14 15 16 16 17 18 18 18 17 17 17 16 16 15 16 15 15 15
14 15 14 12 10 8 7 4 3 1 1 3 5 6 7 7 7 7 7 8 9 11 12 13 15 16 17 17 17 16 16 16 17 17 17 16 15 15 15 15 12 11 14
15 14 13 12 12 11 8 6 3 2 1 3 5 6 7 8 8 8 8 9 10 11 13 15 16 17 16 15 15 13 13 15 16 16 17 17 16 16 15 16 15 13 10
14 17 14 14 14 11 8 6 4 2 1 2 5 6 8 8 9 9 9 9 10 12 15 17 17 15 15 13 13 14 15 15 15 15 14 15 15 16 16 17 17 16 16
15 16 17 16 14 12 9 7 5 3 2 2 4 6 7 8 9 8 9 9 10 13 16 17 16 15 14 13 13 12 14 16 16 15 14 14 14 16 16 17 19 20 19
15 15 17 17 15 12 10 8 5 4 2 3 5 7 8 9 10 10 10 10 12 14 16 17 16 16 15 13 11 13 15 17 15 13 11 13 14 14 16 16 20 22 23
17 16 17 16 15 13 10 7 6 5 3 4 5 7 10 11 11 11 11 12 13 15 16 16 15 14 15 15 14 16 18 18 16 15 15 14 15 15 14 16 17 20 22
19 16 16 16 15 12 10 8 7 6 5 5 5 7 10 12 11 12 12 13 13 15 15 15 15 16 18 18 17 17 17 17 16 16 16 16 17 18 16 16 18 19 21
23 20 18 16 14 12 10 9 7 6 7 7 7 8 10 12 12 12 12 14 13 14 14 15 16 17 19 19 19 17 17 17 17 17 17 18 19 20 19 17 18 19 21
25 22 20 17 15 13 13 10 8 8 8 9 9 10 12 13 13 12 12 14 13 14 15 16 16 18 19 19 19 19 18 17 18 18 19 19 20 20 20 19 19 20 21
26 25 21 18 16 15 14 11 9 9 9 10 10 11 13 14 14 13 13 14 13 14 15 16 18 18 19 19 20 20 19 19 19 19 19 20 21 21 20 20 20 21 22
28 26 22 20 17 16 14 12 11 10 11 11 12 13 14 15 15 14 14 14 14 14 16 16 17 18 19 20 20 20 20 19 19 20 19 20 20 20 19 19 20 20 20
27 25 23 20 18 17 17 13 12 11 11 12 13 14 15 15 16 15 15 15 15 15 17 18 19 20 21 21 21 21 21 20 19 19 19 19 20 20 20 19 19 20 20
26 25 23 20 20 20 17 14 13 12 13 13 14 16 16 16 17 16 15 16 16 16 17 18 20 22 22 22 22 22 22 21 20 19 20 20 20 19 20 20 20 21 22
24 25 25 23 22 20 18 15 14 14 14 15 16 18 18 18 18 17 17 17 18 18 19 20 21 23 23 23 23 23 23 22 20 19 19 20 21 21 20 20 21 22 22
20 25 25 25 20 22 18 16 16 15 16 17 18 19 19 20 19 19 19 19 19 20 22 22 23 24 25 24 24 25 25 23 22 20 20 21 22 22 22 23 23 23 23
14 20 23 23 23 23 18 18 17 18 18 19 20 20 21 21 21 21 20 20 21 22 23 24 24 25 25 25 26 26 26 25 24 22 21 21 22 23 25 26 26 26 26
19 21 23 24 26 23 20 20 21 20 21 21 22 22 22 23 23 23 23 23 23 24 25 25 25 25 26 27 27 28 28 27 26 24 23 23 24 24 25 26 27 27 26
25 27 30 28 25 26 21 21 23 22 22 22 23 24 24 25 25 25 25 25 25 25 26 26 27 27 28 28 29 28 29 29 29 28 25 26 26 26 26 28 29 29 28
33 33 33 31 28 27 24 23 25 24 23 24 25 25 26 27 28 28 27 26 26 27 28 28 28 29 30 31 31 31 30 30 31 33 29 29 30 30 29 29 29 30 29
35 37 29 30 29 26 25 26 25 25 25 26 26 27 27 29 30 29 28 28 28 28 29 30 31 32 33 32 32 30 30 31 31 34 34 32 30 29 31 30 29 31 31
Wind_Direction
188 186 172 160 149 150 156 155 142 67 49 42 39 20 16 17 12 11 4 13 16 20 31 29 29 31 24 21 19 12 3 358 355 352 348 346 342 334 331 326 326 328 332
195 191 183 169 167 158 162 164 142 81 57 30 25 14 9 5 3 7 13 22 35 32 29 29 25 17 12 5 3 1 350 343 342 339 340 339 334 328 321 317 315 319 320
192 192 190 178 176 168 169 176 146 112 57 31 13 5 1 2 8 16 22 24 23 23 17 10 6 0 356 351 347 341 337 336 335 334 334 329 325 324 323 320 314 312 310
197 191 191 186 184 184 184 175 151 117 71 29 13 2 0 4 10 15 18 17 9 6 359 351 350 347 342 338 334 330 328 328 326 327 327 324 322 320 319 319 318 315 306
191 191 190 191 195 197 196 180 165 146 88 35 10 5 2 4 7 7 4 2 356 353 348 341 339 337 333 330 329 327 326 325 324 323 322 321 318 316 314 309 307 304 301
191 192 192 191 200 204 197 181 166 125 41 17 15 3 0 356 357 355 352 350 348 343 338 333 331 329 327 326 324 323 324 324 323 322 321 320 317 316 312 306 308 298 296
191 193 194 194 196 194 184 178 165 120 31 13 12 1 353 352 349 346 343 346 343 336 331 327 326 326 324 322 320 322 322 322 321 320 319 316 314 312 306 301 297 292 307
186 194 196 192 182 182 185 179 174 158 39 9 6 0 353 347 344 342 340 343 338 332 326 325 324 323 322 325 326 327 325 322 318 318 314 311 311 305 301 298 294 284 281
202 183 196 192 183 181 183 183 180 181 273 360 355 1 352 347 341 338 336 338 335 329 325 327 327 328 328 330 330 329 328 325 319 315 312 310 308 304 303 299 291 283 280
212 189 194 190 189 184 187 192 193 199 248 333 346 350 349 341 334 334 331 333 329 327 330 333 333 332 332 332 330 334 334 325 317 306 304 308 309 310 304 296 288 280 276
216 200 199 191 192 190 192 196 205 217 255 311 339 337 339 338 332 332 328 331 328 335 338 338 339 338 340 340 339 333 328 325 322 318 317 315 311 312 313 305 291 284 277
214 207 204 195 196 197 198 201 213 228 255 298 323 333 334 335 331 326 327 330 330 339 339 341 342 342 340 336 330 326 325 324 322 310 312 311 307 307 309 309 307 296 286
210 207 208 202 202 201 205 209 223 243 263 284 310 325 330 329 327 323 327 326 332 341 339 341 340 336 331 329 329 328 328 327 323 308 306 306 306 305 308 312 309 303 298
210 207 206 203 207 207 211 220 231 250 270 290 303 317 323 324 324 317 331 323 334 339 336 338 338 334 327 326 326 329 329 327 324 319 309 303 301 303 306 306 303 303 302
210 209 207 201 205 212 218 224 237 255 273 288 299 315 320 319 319 322 326 320 332 334 332 335 336 330 325 325 325 326 329 328 323 320 317 309 298 296 300 304 305 302 300
208 210 209 205 207 214 222 229 242 259 274 282 294 308 314 318 318 326 321 319 327 328 328 331 331 328 326 328 329 328 330 329 324 320 317 312 306 303 301 300 300 300 300
208 207 209 209 210 217 226 231 242 257 272 286 296 304 308 314 317 317 316 324 320 325 321 325 324 325 326 330 330 329 328 328 325 323 321 316 311 309 308 306 305 303 301
209 207 209 212 216 221 228 233 244 258 271 282 292 296 299 306 312 321 318 315 316 319 317 320 322 324 327 328 329 328 327 327 326 323 319 316 314 314 313 311 308 306 305
209 210 209 214 221 225 229 235 247 260 272 282 291 295 298 304 311 313 314 310 310 310 312 316 320 322 323 324 324 324 322 323 322 321 318 315 312 310 308 311 311 309 308
212 214 215 215 223 228 231 238 249 261 273 281 287 292 298 303 308 311 310 307 304 306 309 312 315 317 319 320 321 319 318 318 319 318 313 311 310 309 309 310 308 307 306
223 221 219 223 221 228 232 240 249 261 270 277 283 291 297 300 306 306 304 302 302 304 307 308 312 314 316 318 317 316 316 316 313 311 309 307 305 305 304 302 299 297 297
228 239 227 229 226 229 235 245 253 259 267 275 282 288 294 297 300 301 301 299 300 302 303 307 311 312 314 315 316 314 312 310 309 308 304 301 299 299 300 300 300 300 299
229 249 244 234 228 231 234 246 253 259 266 274 281 288 292 293 296 300 300 299 300 301 301 304 309 311 312 312 310 309 307 304 302 301 300 299 297 296 297 297 298 298 296
236 235 239 240 233 241 239 247 255 260 266 275 282 288 290 292 297 299 299 298 296 297 300 307 309 309 308 307 306 304 302 301 301 298 298 296 295 294 293 294 295 295 294
238 242 233 232 233 239 245 251 256 261 268 274 280 286 291 292 295 297 295 294 296 299 303 304 305 305 305 305 304 303 302 301 300 299 299 300 300 299 297 296 294 294 294
223 232 229 230 235 241 247 250 257 263 269 274 280 284 286 289 291 291 292 294 296 298 300 303 305 306 305 304 302 301 300 299 299 300 301 301 298 298 300 299 296 295 295